Location: Anumalkud?ru
(16.4847°N, 80.6636°E)
Time: 23:13:27
(UTC+00:00)

COBE Rocket - Pass Details

Date: 11 April 2026
Orbit: 675 x 771 km, 97.1° (Epoch: 9 May)

Event Time Altitude Azimuth Distance (km) Brightness Sun altitude
Rises 13:09:31 0° 21° (NNE) 3,183 7.1 -5.0°
Reaches altitude 10° 13:11:53 10° 27° (NNE) 2,271 6.3 -5.5°
Maximum altitude 13:16:40 44° 100° (E) 1,039 4.3 -6.7°
Drops below altitude 10° 13:21:30 10° 171° (S) 2,301 6.3 -7.8°
Sets 13:23:55 0° 178° (S) 3,230 7.1 -8.4°
